owner,sensor,date,latitude,longitude,vertical_datum,sea_water_temperature,qcFlag 
ENP,ioos.station.NOAA.NDBC:BNKF1:1,2017-12-01T00:00:00Z,25.0870,-80.5190,1.0,25.07,2 
ENP,ioos.station.NOAA.NDBC:BNKF1:1,2017-12-01T01:00:00Z,25.0870,-80.5190,1.0,24.98,2 
ENP,ioos.station.NOAA.NDBC:BNKF1:1,2017-12-01T02:00:00Z,25.0870,-80.5190,1.0,24.84,2 
ENP,ioos.station.NOAA.NDBC:BNKF1:1,2017-12-01T04:00:00Z,25.0870,-80.5190,1.0,24.83,2 
ENP,ioos.station.NOAA.NDBC:BNKF1:1,2017-12-01T05:00:00Z,25.0870,-80.5190,1.0,24.76,2 
ENP,ioos.station.NOAA.NDBC:BNKF1:1,2017-12-01T07:00:00Z,25.0870,-80.5190,1.0,24.41,2 
ENP,ioos.station.NOAA.NDBC:BNKF1:1,2017-12-01T08:00:00Z,25.0870,-80.5190,1.0,24.41,2 
ENP,ioos.station.NOAA.NDBC:BNKF1:1,2017-12-01T09:00:00Z,25.0870,-80.5190,1.0,24.35,2 
ENP,ioos.station.NOAA.NDBC:BNKF1:1,2017-12-01T10:00:00Z,25.0870,-80.5190,1.0,24.28,2 
ENP,ioos.station.NOAA.NDBC:BNKF1:1,2017-12-01T12:00:00Z,25.0870,-80.5190,1.0,24.05,2 
ENP,ioos.station.NOAA.NDBC:BNKF1:1,2017-12-01T13:00:00Z,25.0870,-80.5190,1.0,23.96,2 
ENP,ioos.station.NOAA.NDBC:BNKF1:1,2017-12-01T14:00:00Z,25.0870,-80.5190,1.0,23.95,2 
ENP,ioos.station.NOAA.NDBC:BNKF1:1,2017-12-01T15:00:00Z,25.0870,-80.5190,1.0,24.07,2 
ENP,ioos.station.NOAA.NDBC:BNKF1:1,2017-12-01T16:00:00Z,25.0870,-80.5190,1.0,24.32,2 
ENP,ioos.station.NOAA.NDBC:BNKF1:1,2017-12-01T17:00:00Z,25.0870,-80.5190,1.0,24.56,2 
ENP,ioos.station.NOAA.NDBC:BNKF1:1,2017-12-01T18:00:00Z,25.0870,-80.5190,1.0,24.78,2 
ENP,ioos.station.NOAA.NDBC:BNKF1:1,2017-12-01T19:00:00Z,25.0870,-80.5190,1.0,24.95,2 
ENP,ioos.station.NOAA.NDBC:BNKF1:1,2017-12-01T20:00:00Z,25.0870,-80.5190,1.0,25.36,2 
ENP,ioos.station.NOAA.NDBC:BNKF1:1,2017-12-02T08:00:00Z,25.0870,-80.5190,1.0,24.18,2 
ENP,ioos.station.NOAA.NDBC:BNKF1:1,2017-12-02T09:00:00Z,25.0870,-80.5190,1.0,24.04,2 
ENP,ioos.station.NOAA.NDBC:BNKF1:1,2017-12-02T10:00:00Z,25.0870,-80.5190,1.0,23.86,2 
ENP,ioos.station.NOAA.NDBC:BNKF1:1,2017-12-02T12:00:00Z,25.0870,-80.5190,1.0,23.9,2 
ENP,ioos.station.NOAA.NDBC:BNKF1:1,2017-12-02T13:00:00Z,25.0870,-80.5190,1.0,23.84,2 
ENP,ioos.station.NOAA.NDBC:BNKF1:1,2017-12-02T14:00:00Z,25.0870,-80.5190,1.0,23.93,2 
ENP,ioos.station.NOAA.NDBC:BNKF1:1,2017-12-02T15:00:00Z,25.0870,-80.5190,1.0,24.01,2 
ENP,ioos.station.NOAA.NDBC:BNKF1:1,2017-12-02T16:00:00Z,25.0870,-80.5190,1.0,24.27,2 
ENP,ioos.station.NOAA.NDBC:BNKF1:1,2017-12-02T17:00:00Z,25.0870,-80.5190,1.0,24.41,2 
ENP,ioos.station.NOAA.NDBC:BNKF1:1,2017-12-02T18:00:00Z,25.0870,-80.5190,1.0,24.57,2 
ENP,ioos.station.NOAA.NDBC:BNKF1:1,2017-12-02T20:00:00Z,25.0870,-80.5190,1.0,24.92,2 
ENP,ioos.station.NOAA.NDBC:BNKF1:1,2017-12-02T21:00:00Z,25.0870,-80.5190,1.0,25.03,2 
ENP,ioos.station.NOAA.NDBC:BNKF1:1,2017-12-02T22:00:00Z,25.0870,-80.5190,1.0,24.91,2 
ENP,ioos.station.NOAA.NDBC:BNKF1:1,2017-12-03T00:00:00Z,25.0870,-80.5190,1.0,24.57,2 
ENP,ioos.station.NOAA.NDBC:BNKF1:1,2017-12-03T01:00:00Z,25.0870,-80.5190,1.0,24.48,2 
ENP,ioos.station.NOAA.NDBC:BNKF1:1,2017-12-03T04:00:00Z,25.0870,-80.5190,1.0,24.29,2 
ENP,ioos.station.NOAA.NDBC:BNKF1:1,2017-12-03T08:00:00Z,25.0870,-80.5190,1.0,23.92,2 
ENP,ioos.station.NOAA.NDBC:BNKF1:1,2017-12-03T09:00:00Z,25.0870,-80.5190,1.0,23.87,2 
ENP,ioos.station.NOAA.NDBC:BNKF1:1,2017-12-03T13:00:00Z,25.0870,-80.5190,1.0,23.66,2 
ENP,ioos.station.NOAA.NDBC:BNKF1:1,2017-12-03T14:00:00Z,25.0870,-80.5190,1.0,23.67,2 
ENP,ioos.station.NOAA.NDBC:BNKF1:1,2017-12-03T15:00:00Z,25.0870,-80.5190,1.0,23.85,2 
ENP,ioos.station.NOAA.NDBC:BNKF1:1,2017-12-03T16:00:00Z,25.0870,-80.5190,1.0,23.93,2 
ENP,ioos.station.NOAA.NDBC:BNKF1:1,2017-12-03T17:00:00Z,25.0870,-80.5190,1.0,23.87,2 
ENP,ioos.station.NOAA.NDBC:BNKF1:1,2017-12-03T18:00:00Z,25.0870,-80.5190,1.0,24.27,2 
ENP,ioos.station.NOAA.NDBC:BNKF1:1,2017-12-03T19:00:00Z,25.0870,-80.5190,1.0,24.46,2 
ENP,ioos.station.NOAA.NDBC:BNKF1:1,2017-12-03T20:00:00Z,25.0870,-80.5190,1.0,24.71,2 
ENP,ioos.station.NOAA.NDBC:BNKF1:1,2017-12-03T21:00:00Z,25.0870,-80.5190,1.0,24.77,2 
ENP,ioos.station.NOAA.NDBC:BNKF1:1,2017-12-03T22:00:00Z,25.0870,-80.5190,1.0,24.73,2 
ENP,ioos.station.NOAA.NDBC:BNKF1:1,2017-12-03T23:00:00Z,25.0870,-80.5190,1.0,24.67,2 
ENP,ioos.station.NOAA.NDBC:BNKF1:1,2017-12-04T02:00:00Z,25.0870,-80.5190,1.0,24.25,2 
ENP,ioos.station.NOAA.NDBC:BNKF1:1,2017-12-04T04:00:00Z,25.0870,-80.5190,1.0,23.92,2 
ENP,ioos.station.NOAA.NDBC:BNKF1:1,2017-12-04T05:00:00Z,25.0870,-80.5190,1.0,23.85,2 
ENP,ioos.station.NOAA.NDBC:BNKF1:1,2017-12-04T07:00:00Z,25.0870,-80.5190,1.0,23.8,2 
ENP,ioos.station.NOAA.NDBC:BNKF1:1,2017-12-04T08:00:00Z,25.0870,-80.5190,1.0,23.89,2 
ENP,ioos.station.NOAA.NDBC:BNKF1:1,2017-12-04T09:00:00Z,25.0870,-80.5190,1.0,23.69,2 
ENP,ioos.station.NOAA.NDBC:BNKF1:1,2017-12-04T10:00:00Z,25.0870,-80.5190,1.0,23.65,2 
ENP,ioos.station.NOAA.NDBC:BNKF1:1,2017-12-04T12:00:00Z,25.0870,-80.5190,1.0,23.56,2 
ENP,ioos.station.NOAA.NDBC:BNKF1:1,2017-12-04T13:00:00Z,25.0870,-80.5190,1.0,23.5,2 
ENP,ioos.station.NOAA.NDBC:BNKF1:1,2017-12-04T15:00:00Z,25.0870,-80.5190,1.0,23.57,2 
ENP,ioos.station.NOAA.NDBC:BNKF1:1,2017-12-04T17:00:00Z,25.0870,-80.5190,1.0,23.89,2 
ENP,ioos.station.NOAA.NDBC:BNKF1:1,2017-12-04T18:00:00Z,25.0870,-80.5190,1.0,24.1,2 
ENP,ioos.station.NOAA.NDBC:BNKF1:1,2017-12-04T19:00:00Z,25.0870,-80.5190,1.0,24.33,2 
ENP,ioos.station.NOAA.NDBC:BNKF1:1,2017-12-04T20:00:00Z,25.0870,-80.5190,1.0,24.48,2 
ENP,ioos.station.NOAA.NDBC:BNKF1:1,2017-12-04T21:00:00Z,25.0870,-80.5190,1.0,24.55,2 
ENP,ioos.station.NOAA.NDBC:BNKF1:1,2017-12-04T22:00:00Z,25.0870,-80.5190,1.0,24.48,2 
ENP,ioos.station.NOAA.NDBC:BNKF1:1,2017-12-04T23:00:00Z,25.0870,-80.5190,1.0,24.32,2 
ENP,ioos.station.NOAA.NDBC:BNKF1:1,2017-12-05T00:00:00Z,25.0870,-80.5190,1.0,24.16,2 
ENP,ioos.station.NOAA.NDBC:BNKF1:1,2017-12-05T13:00:00Z,25.0870,-80.5190,1.0,23.32,2 
ENP,ioos.station.NOAA.NDBC:BNKF1:1,2017-12-05T14:00:00Z,25.0870,-80.5190,1.0,23.42,2 
ENP,ioos.station.NOAA.NDBC:BNKF1:1,2017-12-05T15:00:00Z,25.0870,-80.5190,1.0,23.62,2 
ENP,ioos.station.NOAA.NDBC:BNKF1:1,2017-12-05T18:00:00Z,25.0870,-80.5190,1.0,24.33,2 
ENP,ioos.station.NOAA.NDBC:BNKF1:1,2017-12-05T19:00:00Z,25.0870,-80.5190,1.0,24.51,2 
ENP,ioos.station.NOAA.NDBC:BNKF1:1,2017-12-05T20:00:00Z,25.0870,-80.5190,1.0,24.67,2 
ENP,ioos.station.NOAA.NDBC:BNKF1:1,2017-12-05T22:00:00Z,25.0870,-80.5190,1.0,25.02,2 
ENP,ioos.station.NOAA.NDBC:BNKF1:1,2017-12-05T23:00:00Z,25.0870,-80.5190,1.0,24.89,2 
ENP,ioos.station.NOAA.NDBC:BNKF1:1,2017-12-06T01:00:00Z,25.0870,-80.5190,1.0,24.5,2 
ENP,ioos.station.NOAA.NDBC:BNKF1:1,2017-12-06T02:00:00Z,25.0870,-80.5190,1.0,24.35,2 
ENP,ioos.station.NOAA.NDBC:BNKF1:1,2017-12-06T04:00:00Z,25.0870,-80.5190,1.0,24.22,2 
ENP,ioos.station.NOAA.NDBC:BNKF1:1,2017-12-06T05:00:00Z,25.0870,-80.5190,1.0,24.19,2 
ENP,ioos.station.NOAA.NDBC:BNKF1:1,2017-12-06T07:00:00Z,25.0870,-80.5190,1.0,24.07,2 
ENP,ioos.station.NOAA.NDBC:BNKF1:1,2017-12-06T08:00:00Z,25.0870,-80.5190,1.0,24.09,2 
ENP,ioos.station.NOAA.NDBC:BNKF1:1,2017-12-06T09:00:00Z,25.0870,-80.5190,1.0,24.03,2 
ENP,ioos.station.NOAA.NDBC:BNKF1:1,2017-12-06T10:00:00Z,25.0870,-80.5190,1.0,24.03,2 
ENP,ioos.station.NOAA.NDBC:BNKF1:1,2017-12-06T13:00:00Z,25.0870,-80.5190,1.0,23.94,2 
ENP,ioos.station.NOAA.NDBC:BNKF1:1,2017-12-06T15:00:00Z,25.0870,-80.5190,1.0,24.1,2 
ENP,ioos.station.NOAA.NDBC:BNKF1:1,2017-12-06T16:00:00Z,25.0870,-80.5190,1.0,24.3,2 
ENP,ioos.station.NOAA.NDBC:BNKF1:1,2017-12-06T18:00:00Z,25.0870,-80.5190,1.0,24.81,2 
ENP,ioos.station.NOAA.NDBC:BNKF1:1,2017-12-06T19:00:00Z,25.0870,-80.5190,1.0,25.05,2 
ENP,ioos.station.NOAA.NDBC:BNKF1:1,2017-12-06T20:00:00Z,25.0870,-80.5190,1.0,25.23,2 
ENP,ioos.station.NOAA.NDBC:BNKF1:1,2017-12-06T21:00:00Z,25.0870,-80.5190,1.0,25.33,2 
ENP,ioos.station.NOAA.NDBC:BNKF1:1,2017-12-06T22:00:00Z,25.0870,-80.5190,1.0,25.36,2 
ENP,ioos.station.NOAA.NDBC:BNKF1:1,2017-12-06T23:00:00Z,25.0870,-80.5190,1.0,25.35,2 
ENP,ioos.station.NOAA.NDBC:BNKF1:1,2017-12-07T00:00:00Z,25.0870,-80.5190,1.0,25.31,2 
ENP,ioos.station.NOAA.NDBC:BNKF1:1,2017-12-07T01:00:00Z,25.0870,-80.5190,1.0,25.26,2 
ENP,ioos.station.NOAA.NDBC:BNKF1:1,2017-12-07T04:00:00Z,25.0870,-80.5190,1.0,25.03,2 
ENP,ioos.station.NOAA.NDBC:BNKF1:1,2017-12-07T07:00:00Z,25.0870,-80.5190,1.0,24.87,2 
ENP,ioos.station.NOAA.NDBC:BNKF1:1,2017-12-07T08:00:00Z,25.0870,-80.5190,1.0,24.83,2 
ENP,ioos.station.NOAA.NDBC:BNKF1:1,2017-12-07T09:00:00Z,25.0870,-80.5190,1.0,24.77,2 
ENP,ioos.station.NOAA.NDBC:BNKF1:1,2017-12-07T10:00:00Z,25.0870,-80.5190,1.0,24.72,2 
ENP,ioos.station.NOAA.NDBC:BNKF1:1,2017-12-07T13:00:00Z,25.0870,-80.5190,1.0,24.61,2 
ENP,ioos.station.NOAA.NDBC:BNKF1:1,2017-12-07T14:00:00Z,25.0870,-80.5190,1.0,24.61,2 
ENP,ioos.station.NOAA.NDBC:BNKF1:1,2017-12-07T15:00:00Z,25.0870,-80.5190,1.0,24.76,2 
ENP,ioos.station.NOAA.NDBC:BNKF1:1,2017-12-07T16:00:00Z,25.0870,-80.5190,1.0,24.99,2 
ENP,ioos.station.NOAA.NDBC:BNKF1:1,2017-12-07T17:00:00Z,25.0870,-80.5190,1.0,25.2,2 
ENP,ioos.station.NOAA.NDBC:BNKF1:1,2017-12-07T18:00:00Z,25.0870,-80.5190,1.0,25.5,2 
ENP,ioos.station.NOAA.NDBC:BNKF1:1,2017-12-07T20:00:00Z,25.0870,-80.5190,1.0,25.98,2 
ENP,ioos.station.NOAA.NDBC:BNKF1:1,2017-12-07T22:00:00Z,25.0870,-80.5190,1.0,26.02,2 
ENP,ioos.station.NOAA.NDBC:BNKF1:1,2017-12-07T23:00:00Z,25.0870,-80.5190,1.0,25.93,2 
ENP,ioos.station.NOAA.NDBC:BNKF1:1,2017-12-08T00:00:00Z,25.0870,-80.5190,1.0,25.87,2 
ENP,ioos.station.NOAA.NDBC:BNKF1:1,2017-12-08T01:00:00Z,25.0870,-80.5190,1.0,25.82,2 
ENP,ioos.station.NOAA.NDBC:BNKF1:1,2017-12-08T02:00:00Z,25.0870,-80.5190,1.0,25.78,2 
ENP,ioos.station.NOAA.NDBC:BNKF1:1,2017-12-08T04:00:00Z,25.0870,-80.5190,1.0,25.64,2 
ENP,ioos.station.NOAA.NDBC:BNKF1:1,2017-12-08T05:00:00Z,25.0870,-80.5190,1.0,25.57,2 
ENP,ioos.station.NOAA.NDBC:BNKF1:1,2017-12-08T07:00:00Z,25.0870,-80.5190,1.0,25.65,2 
ENP,ioos.station.NOAA.NDBC:BNKF1:1,2017-12-08T08:00:00Z,25.0870,-80.5190,1.0,25.65,2 
ENP,ioos.station.NOAA.NDBC:BNKF1:1,2017-12-08T09:00:00Z,25.0870,-80.5190,1.0,25.62,2 
ENP,ioos.station.NOAA.NDBC:BNKF1:1,2017-12-08T10:00:00Z,25.0870,-80.5190,1.0,25.58,2 
ENP,ioos.station.NOAA.NDBC:BNKF1:1,2017-12-08T12:00:00Z,25.0870,-80.5190,1.0,25.48,2 
ENP,ioos.station.NOAA.NDBC:BNKF1:1,2017-12-08T14:00:00Z,25.0870,-80.5190,1.0,25.54,2 
ENP,ioos.station.NOAA.NDBC:BNKF1:1,2017-12-08T15:00:00Z,25.0870,-80.5190,1.0,25.57,2 
ENP,ioos.station.NOAA.NDBC:BNKF1:1,2017-12-08T17:00:00Z,25.0870,-80.5190,1.0,25.63,2 
ENP,ioos.station.NOAA.NDBC:BNKF1:1,2017-12-08T18:00:00Z,25.0870,-80.5190,1.0,25.86,2 
ENP,ioos.station.NOAA.NDBC:BNKF1:1,2017-12-08T19:00:00Z,25.0870,-80.5190,1.0,26.04,2 
ENP,ioos.station.NOAA.NDBC:BNKF1:1,2017-12-08T20:00:00Z,25.0870,-80.5190,1.0,26.25,2 
ENP,ioos.station.NOAA.NDBC:BNKF1:1,2017-12-08T21:00:00Z,25.0870,-80.5190,1.0,26.39,2 
ENP,ioos.station.NOAA.NDBC:BNKF1:1,2017-12-08T23:00:00Z,25.0870,-80.5190,1.0,26.48,2 
ENP,ioos.station.NOAA.NDBC:BNKF1:1,2017-12-09T00:00:00Z,25.0870,-80.5190,1.0,26.47,2 
ENP,ioos.station.NOAA.NDBC:BNKF1:1,2017-12-09T01:00:00Z,25.0870,-80.5190,1.0,26.44,2 
ENP,ioos.station.NOAA.NDBC:BNKF1:1,2017-12-09T02:00:00Z,25.0870,-80.5190,1.0,26.39,2 
ENP,ioos.station.NOAA.NDBC:BNKF1:1,2017-12-09T04:00:00Z,25.0870,-80.5190,1.0,26.25,2 
ENP,ioos.station.NOAA.NDBC:BNKF1:1,2017-12-09T05:00:00Z,25.0870,-80.5190,1.0,26.04,2 
ENP,ioos.station.NOAA.NDBC:BNKF1:1,2017-12-09T07:00:00Z,25.0870,-80.5190,1.0,25.96,2 
ENP,ioos.station.NOAA.NDBC:BNKF1:1,2017-12-09T08:00:00Z,25.0870,-80.5190,1.0,25.89,2 
ENP,ioos.station.NOAA.NDBC:BNKF1:1,2017-12-09T09:00:00Z,25.0870,-80.5190,1.0,25.95,2 
ENP,ioos.station.NOAA.NDBC:BNKF1:1,2017-12-09T11:00:00Z,25.0870,-80.5190,1.0,25.88,2 
ENP,ioos.station.NOAA.NDBC:BNKF1:1,2017-12-09T13:00:00Z,25.0870,-80.5190,1.0,25.7,2 
ENP,ioos.station.NOAA.NDBC:BNKF1:1,2017-12-09T14:00:00Z,25.0870,-80.5190,1.0,25.66,2 
ENP,ioos.station.NOAA.NDBC:BNKF1:1,2017-12-09T15:00:00Z,25.0870,-80.5190,1.0,25.71,2 
ENP,ioos.station.NOAA.NDBC:BNKF1:1,2017-12-09T16:00:00Z,25.0870,-80.5190,1.0,25.26,2 
ENP,ioos.station.NOAA.NDBC:BNKF1:1,2017-12-09T17:00:00Z,25.0870,-80.5190,1.0,25.27,2 
ENP,ioos.station.NOAA.NDBC:BNKF1:1,2017-12-09T18:00:00Z,25.0870,-80.5190,1.0,25.03,2 
ENP,ioos.station.NOAA.NDBC:BNKF1:1,2017-12-09T19:00:00Z,25.0870,-80.5190,1.0,24.93,2 
ENP,ioos.station.NOAA.NDBC:BNKF1:1,2017-12-09T20:00:00Z,25.0870,-80.5190,1.0,24.85,2 
ENP,ioos.station.NOAA.NDBC:BNKF1:1,2017-12-09T21:00:00Z,25.0870,-80.5190,1.0,24.76,2 
ENP,ioos.station.NOAA.NDBC:BNKF1:1,2017-12-09T22:00:00Z,25.0870,-80.5190,1.0,24.63,2 
ENP,ioos.station.NOAA.NDBC:BNKF1:1,2017-12-09T23:00:00Z,25.0870,-80.5190,1.0,24.47,2 
ENP,ioos.station.NOAA.NDBC:BNKF1:1,2017-12-10T00:00:00Z,25.0870,-80.5190,1.0,24.32,2 
ENP,ioos.station.NOAA.NDBC:BNKF1:1,2017-12-10T01:00:00Z,25.0870,-80.5190,1.0,23.84,2 
ENP,ioos.station.NOAA.NDBC:BNKF1:1,2017-12-10T02:00:00Z,25.0870,-80.5190,1.0,23.9,2 
ENP,ioos.station.NOAA.NDBC:BNKF1:1,2017-12-10T04:00:00Z,25.0870,-80.5190,1.0,23.69,2 
ENP,ioos.station.NOAA.NDBC:BNKF1:1,2017-12-10T05:00:00Z,25.0870,-80.5190,1.0,23.52,2 
ENP,ioos.station.NOAA.NDBC:BNKF1:1,2017-12-10T07:00:00Z,25.0870,-80.5190,1.0,22.96,2 
ENP,ioos.station.NOAA.NDBC:BNKF1:1,2017-12-10T08:00:00Z,25.0870,-80.5190,1.0,22.62,2 
ENP,ioos.station.NOAA.NDBC:BNKF1:1,2017-12-10T09:00:00Z,25.0870,-80.5190,1.0,22.26,2 
ENP,ioos.station.NOAA.NDBC:BNKF1:1,2017-12-10T10:00:00Z,25.0870,-80.5190,1.0,21.91,2 
ENP,ioos.station.NOAA.NDBC:BNKF1:1,2017-12-10T13:00:00Z,25.0870,-80.5190,1.0,20.93,2 
ENP,ioos.station.NOAA.NDBC:BNKF1:1,2017-12-10T14:00:00Z,25.0870,-80.5190,1.0,20.73,2 
ENP,ioos.station.NOAA.NDBC:BNKF1:1,2017-12-10T15:00:00Z,25.0870,-80.5190,1.0,20.61,2 
ENP,ioos.station.NOAA.NDBC:BNKF1:1,2017-12-10T16:00:00Z,25.0870,-80.5190,1.0,20.5,2 
ENP,ioos.station.NOAA.NDBC:BNKF1:1,2017-12-10T17:00:00Z,25.0870,-80.5190,1.0,20.46,2 
ENP,ioos.station.NOAA.NDBC:BNKF1:1,2017-12-10T18:00:00Z,25.0870,-80.5190,1.0,20.49,2 
ENP,ioos.station.NOAA.NDBC:BNKF1:1,2017-12-10T19:00:00Z,25.0870,-80.5190,1.0,20.51,2 
ENP,ioos.station.NOAA.NDBC:BNKF1:1,2017-12-10T20:00:00Z,25.0870,-80.5190,1.0,20.52,2 
ENP,ioos.station.NOAA.NDBC:BNKF1:1,2017-12-10T21:00:00Z,25.0870,-80.5190,1.0,20.43,2 
ENP,ioos.station.NOAA.NDBC:BNKF1:1,2017-12-10T22:00:00Z,25.0870,-80.5190,1.0,20.21,2 
ENP,ioos.station.NOAA.NDBC:BNKF1:1,2017-12-10T23:00:00Z,25.0870,-80.5190,1.0,19.99,2 
ENP,ioos.station.NOAA.NDBC:BNKF1:1,2017-12-11T00:00:00Z,25.0870,-80.5190,1.0,19.83,2 
ENP,ioos.station.NOAA.NDBC:BNKF1:1,2017-12-11T01:00:00Z,25.0870,-80.5190,1.0,19.59,2 
ENP,ioos.station.NOAA.NDBC:BNKF1:1,2017-12-11T02:00:00Z,25.0870,-80.5190,1.0,19.46,2 
ENP,ioos.station.NOAA.NDBC:BNKF1:1,2017-12-11T04:00:00Z,25.0870,-80.5190,1.0,19.06,2 
ENP,ioos.station.NOAA.NDBC:BNKF1:1,2017-12-11T05:00:00Z,25.0870,-80.5190,1.0,18.9,2 
ENP,ioos.station.NOAA.NDBC:BNKF1:1,2017-12-11T07:00:00Z,25.0870,-80.5190,1.0,18.58,2 
ENP,ioos.station.NOAA.NDBC:BNKF1:1,2017-12-11T08:00:00Z,25.0870,-80.5190,1.0,18.4,2 
ENP,ioos.station.NOAA.NDBC:BNKF1:1,2017-12-11T09:00:00Z,25.0870,-80.5190,1.0,18.21,2 
ENP,ioos.station.NOAA.NDBC:BNKF1:1,2017-12-11T10:00:00Z,25.0870,-80.5190,1.0,18.02,2 
ENP,ioos.station.NOAA.NDBC:BNKF1:1,2017-12-11T12:00:00Z,25.0870,-80.5190,1.0,17.68,2 
ENP,ioos.station.NOAA.NDBC:BNKF1:1,2017-12-11T13:00:00Z,25.0870,-80.5190,1.0,17.54,2 
ENP,ioos.station.NOAA.NDBC:BNKF1:1,2017-12-11T14:00:00Z,25.0870,-80.5190,1.0,17.49,2 
ENP,ioos.station.NOAA.NDBC:BNKF1:1,2017-12-11T15:00:00Z,25.0870,-80.5190,1.0,17.5,2 
ENP,ioos.station.NOAA.NDBC:BNKF1:1,2017-12-11T16:00:00Z,25.0870,-80.5190,1.0,17.6,2 
ENP,ioos.station.NOAA.NDBC:BNKF1:1,2017-12-11T17:00:00Z,25.0870,-80.5190,1.0,17.71,2 
ENP,ioos.station.NOAA.NDBC:BNKF1:1,2017-12-11T18:00:00Z,25.0870,-80.5190,1.0,17.74,2 
ENP,ioos.station.NOAA.NDBC:BNKF1:1,2017-12-11T19:00:00Z,25.0870,-80.5190,1.0,17.87,2 
ENP,ioos.station.NOAA.NDBC:BNKF1:1,2017-12-11T20:00:00Z,25.0870,-80.5190,1.0,18.03,2 
ENP,ioos.station.NOAA.NDBC:BNKF1:1,2017-12-11T21:00:00Z,25.0870,-80.5190,1.0,18.05,2 
ENP,ioos.station.NOAA.NDBC:BNKF1:1,2017-12-11T22:00:00Z,25.0870,-80.5190,1.0,17.78,2 
ENP,ioos.station.NOAA.NDBC:BNKF1:1,2017-12-11T23:00:00Z,25.0870,-80.5190,1.0,17.58,2 
ENP,ioos.station.NOAA.NDBC:BNKF1:1,2017-12-12T00:00:00Z,25.0870,-80.5190,1.0,17.48,2 
ENP,ioos.station.NOAA.NDBC:BNKF1:1,2017-12-12T01:00:00Z,25.0870,-80.5190,1.0,17.29,2 
ENP,ioos.station.NOAA.NDBC:BNKF1:1,2017-12-12T02:00:00Z,25.0870,-80.5190,1.0,17.21,2 
ENP,ioos.station.NOAA.NDBC:BNKF1:1,2017-12-12T05:00:00Z,25.0870,-80.5190,1.0,16.86,2 
ENP,ioos.station.NOAA.NDBC:BNKF1:1,2017-12-12T07:00:00Z,25.0870,-80.5190,1.0,16.73,2 
ENP,ioos.station.NOAA.NDBC:BNKF1:1,2017-12-12T08:00:00Z,25.0870,-80.5190,1.0,16.7,2 
ENP,ioos.station.NOAA.NDBC:BNKF1:1,2017-12-12T09:00:00Z,25.0870,-80.5190,1.0,15.9,2 
ENP,ioos.station.NOAA.NDBC:BNKF1:1,2017-12-12T10:00:00Z,25.0870,-80.5190,1.0,15.68,2 
ENP,ioos.station.NOAA.NDBC:BNKF1:1,2017-12-12T13:00:00Z,25.0870,-80.5190,1.0,15.52,2 
ENP,ioos.station.NOAA.NDBC:BNKF1:1,2017-12-12T14:00:00Z,25.0870,-80.5190,1.0,15.78,2 
ENP,ioos.station.NOAA.NDBC:BNKF1:1,2017-12-12T15:00:00Z,25.0870,-80.5190,1.0,16.06,2 
ENP,ioos.station.NOAA.NDBC:BNKF1:1,2017-12-12T16:00:00Z,25.0870,-80.5190,1.0,16.34,2 
ENP,ioos.station.NOAA.NDBC:BNKF1:1,2017-12-12T17:00:00Z,25.0870,-80.5190,1.0,16.62,2 
ENP,ioos.station.NOAA.NDBC:BNKF1:1,2017-12-12T18:00:00Z,25.0870,-80.5190,1.0,16.89,2 
ENP,ioos.station.NOAA.NDBC:BNKF1:1,2017-12-13T09:00:00Z,25.0870,-80.5190,1.0,17.02,2 
ENP,ioos.station.NOAA.NDBC:BNKF1:1,2017-12-13T10:00:00Z,25.0870,-80.5190,1.0,16.95,2 
ENP,ioos.station.NOAA.NDBC:BNKF1:1,2017-12-13T12:00:00Z,25.0870,-80.5190,1.0,16.83,2 
ENP,ioos.station.NOAA.NDBC:BNKF1:1,2017-12-13T13:00:00Z,25.0870,-80.5190,1.0,16.74,2 
ENP,ioos.station.NOAA.NDBC:BNKF1:1,2017-12-13T14:00:00Z,25.0870,-80.5190,1.0,16.71,2 
ENP,ioos.station.NOAA.NDBC:BNKF1:1,2017-12-13T17:00:00Z,25.0870,-80.5190,1.0,17.09,2 
ENP,ioos.station.NOAA.NDBC:BNKF1:1,2017-12-13T18:00:00Z,25.0870,-80.5190,1.0,17.25,2 
ENP,ioos.station.NOAA.NDBC:BNKF1:1,2017-12-13T19:00:00Z,25.0870,-80.5190,1.0,17.37,2 
ENP,ioos.station.NOAA.NDBC:BNKF1:1,2017-12-13T20:00:00Z,25.0870,-80.5190,1.0,17.49,2 
ENP,ioos.station.NOAA.NDBC:BNKF1:1,2017-12-13T21:00:00Z,25.0870,-80.5190,1.0,17.53,2 
ENP,ioos.station.NOAA.NDBC:BNKF1:1,2017-12-13T22:00:00Z,25.0870,-80.5190,1.0,17.5,2 
ENP,ioos.station.NOAA.NDBC:BNKF1:1,2017-12-14T10:00:00Z,25.0870,-80.5190,1.0,16.43,2 
ENP,ioos.station.NOAA.NDBC:BNKF1:1,2017-12-14T12:00:00Z,25.0870,-80.5190,1.0,16.3,2 
ENP,ioos.station.NOAA.NDBC:BNKF1:1,2017-12-14T13:00:00Z,25.0870,-80.5190,1.0,16.2,2 
ENP,ioos.station.NOAA.NDBC:BNKF1:1,2017-12-14T14:00:00Z,25.0870,-80.5190,1.0,16.47,2 
ENP,ioos.station.NOAA.NDBC:BNKF1:1,2017-12-14T15:00:00Z,25.0870,-80.5190,1.0,16.56,2 
ENP,ioos.station.NOAA.NDBC:BNKF1:1,2017-12-14T16:00:00Z,25.0870,-80.5190,1.0,16.92,2 
ENP,ioos.station.NOAA.NDBC:BNKF1:1,2017-12-14T17:00:00Z,25.0870,-80.5190,1.0,17.07,2 
ENP,ioos.station.NOAA.NDBC:BNKF1:1,2017-12-14T18:00:00Z,25.0870,-80.5190,1.0,17.19,2 
ENP,ioos.station.NOAA.NDBC:BNKF1:1,2017-12-14T19:00:00Z,25.0870,-80.5190,1.0,17.47,2 
ENP,ioos.station.NOAA.NDBC:BNKF1:1,2017-12-14T20:00:00Z,25.0870,-80.5190,1.0,17.74,2 
ENP,ioos.station.NOAA.NDBC:BNKF1:1,2017-12-14T23:00:00Z,25.0870,-80.5190,1.0,18.14,2 
ENP,ioos.station.NOAA.NDBC:BNKF1:1,2017-12-15T00:00:00Z,25.0870,-80.5190,1.0,17.88,2 
ENP,ioos.station.NOAA.NDBC:BNKF1:1,2017-12-15T01:00:00Z,25.0870,-80.5190,1.0,17.78,2 
ENP,ioos.station.NOAA.NDBC:BNKF1:1,2017-12-15T02:00:00Z,25.0870,-80.5190,1.0,17.74,2 
ENP,ioos.station.NOAA.NDBC:BNKF1:1,2017-12-15T05:00:00Z,25.0870,-80.5190,1.0,17.58,2 
ENP,ioos.station.NOAA.NDBC:BNKF1:1,2017-12-15T08:00:00Z,25.0870,-80.5190,1.0,17.32,2 
ENP,ioos.station.NOAA.NDBC:BNKF1:1,2017-12-15T09:00:00Z,25.0870,-80.5190,1.0,17.29,2 
ENP,ioos.station.NOAA.NDBC:BNKF1:1,2017-12-15T10:00:00Z,25.0870,-80.5190,1.0,17.22,2 
ENP,ioos.station.NOAA.NDBC:BNKF1:1,2017-12-15T12:00:00Z,25.0870,-80.5190,1.0,17.14,2 
ENP,ioos.station.NOAA.NDBC:BNKF1:1,2017-12-15T13:00:00Z,25.0870,-80.5190,1.0,17.09,2 
ENP,ioos.station.NOAA.NDBC:BNKF1:1,2017-12-15T14:00:00Z,25.0870,-80.5190,1.0,17.09,2 
ENP,ioos.station.NOAA.NDBC:BNKF1:1,2017-12-15T15:00:00Z,25.0870,-80.5190,1.0,17.14,2 
ENP,ioos.station.NOAA.NDBC:BNKF1:1,2017-12-15T16:00:00Z,25.0870,-80.5190,1.0,17.2,2 
ENP,ioos.station.NOAA.NDBC:BNKF1:1,2017-12-15T17:00:00Z,25.0870,-80.5190,1.0,17.5,2 
ENP,ioos.station.NOAA.NDBC:BNKF1:1,2017-12-15T18:00:00Z,25.0870,-80.5190,1.0,17.63,2 
ENP,ioos.station.NOAA.NDBC:BNKF1:1,2017-12-15T19:00:00Z,25.0870,-80.5190,1.0,18.1,2 
ENP,ioos.station.NOAA.NDBC:BNKF1:1,2017-12-15T20:00:00Z,25.0870,-80.5190,1.0,18.47,2 
ENP,ioos.station.NOAA.NDBC:BNKF1:1,2017-12-15T21:00:00Z,25.0870,-80.5190,1.0,18.55,2 
ENP,ioos.station.NOAA.NDBC:BNKF1:1,2017-12-15T22:00:00Z,25.0870,-80.5190,1.0,18.48,2 
ENP,ioos.station.NOAA.NDBC:BNKF1:1,2017-12-15T23:00:00Z,25.0870,-80.5190,1.0,18.62,2 
ENP,ioos.station.NOAA.NDBC:BNKF1:1,2017-12-16T00:00:00Z,25.0870,-80.5190,1.0,18.7,2 
ENP,ioos.station.NOAA.NDBC:BNKF1:1,2017-12-16T01:00:00Z,25.0870,-80.5190,1.0,19.49,2 
ENP,ioos.station.NOAA.NDBC:BNKF1:1,2017-12-16T02:00:00Z,25.0870,-80.5190,1.0,19.09,2 
ENP,ioos.station.NOAA.NDBC:BNKF1:1,2017-12-16T04:00:00Z,25.0870,-80.5190,1.0,18.9,2 
ENP,ioos.station.NOAA.NDBC:BNKF1:1,2017-12-16T05:00:00Z,25.0870,-80.5190,1.0,18.82,2 
ENP,ioos.station.NOAA.NDBC:BNKF1:1,2017-12-16T07:00:00Z,25.0870,-80.5190,1.0,19.02,2 
ENP,ioos.station.NOAA.NDBC:BNKF1:1,2017-12-16T08:00:00Z,25.0870,-80.5190,1.0,18.94,2 
ENP,ioos.station.NOAA.NDBC:BNKF1:1,2017-12-16T09:00:00Z,25.0870,-80.5190,1.0,18.87,2 
ENP,ioos.station.NOAA.NDBC:BNKF1:1,2017-12-16T10:00:00Z,25.0870,-80.5190,1.0,18.78,2 
ENP,ioos.station.NOAA.NDBC:BNKF1:1,2017-12-16T12:00:00Z,25.0870,-80.5190,1.0,17.98,2 
ENP,ioos.station.NOAA.NDBC:BNKF1:1,2017-12-16T13:00:00Z,25.0870,-80.5190,1.0,17.96,2 
ENP,ioos.station.NOAA.NDBC:BNKF1:1,2017-12-16T14:00:00Z,25.0870,-80.5190,1.0,18.0,2 
ENP,ioos.station.NOAA.NDBC:BNKF1:1,2017-12-16T15:00:00Z,25.0870,-80.5190,1.0,17.91,2 
ENP,ioos.station.NOAA.NDBC:BNKF1:1,2017-12-16T16:00:00Z,25.0870,-80.5190,1.0,18.07,2 
ENP,ioos.station.NOAA.NDBC:BNKF1:1,2017-12-16T17:00:00Z,25.0870,-80.5190,1.0,18.46,2 
ENP,ioos.station.NOAA.NDBC:BNKF1:1,2017-12-16T18:00:00Z,25.0870,-80.5190,1.0,18.82,2 
ENP,ioos.station.NOAA.NDBC:BNKF1:1,2017-12-16T19:00:00Z,25.0870,-80.5190,1.0,19.56,2 
ENP,ioos.station.NOAA.NDBC:BNKF1:1,2017-12-16T20:00:00Z,25.0870,-80.5190,1.0,19.65,2 
ENP,ioos.station.NOAA.NDBC:BNKF1:1,2017-12-16T21:00:00Z,25.0870,-80.5190,1.0,19.78,2 
ENP,ioos.station.NOAA.NDBC:BNKF1:1,2017-12-16T22:00:00Z,25.0870,-80.5190,1.0,19.53,2 
ENP,ioos.station.NOAA.NDBC:BNKF1:1,2017-12-16T23:00:00Z,25.0870,-80.5190,1.0,19.23,2 
ENP,ioos.station.NOAA.NDBC:BNKF1:1,2017-12-17T00:00:00Z,25.0870,-80.5190,1.0,19.22,2 
ENP,ioos.station.NOAA.NDBC:BNKF1:1,2017-12-17T01:00:00Z,25.0870,-80.5190,1.0,19.21,2 
ENP,ioos.station.NOAA.NDBC:BNKF1:1,2017-12-17T02:00:00Z,25.0870,-80.5190,1.0,19.29,2 
ENP,ioos.station.NOAA.NDBC:BNKF1:1,2017-12-17T04:00:00Z,25.0870,-80.5190,1.0,19.31,2 
ENP,ioos.station.NOAA.NDBC:BNKF1:1,2017-12-17T05:00:00Z,25.0870,-80.5190,1.0,19.29,2 
ENP,ioos.station.NOAA.NDBC:BNKF1:1,2017-12-17T07:00:00Z,25.0870,-80.5190,1.0,19.26,2 
ENP,ioos.station.NOAA.NDBC:BNKF1:1,2017-12-17T08:00:00Z,25.0870,-80.5190,1.0,19.18,2 
ENP,ioos.station.NOAA.NDBC:BNKF1:1,2017-12-17T09:00:00Z,25.0870,-80.5190,1.0,19.18,2 
ENP,ioos.station.NOAA.NDBC:BNKF1:1,2017-12-17T10:00:00Z,25.0870,-80.5190,1.0,19.05,2 
ENP,ioos.station.NOAA.NDBC:BNKF1:1,2017-12-17T13:00:00Z,25.0870,-80.5190,1.0,19.01,2 
ENP,ioos.station.NOAA.NDBC:BNKF1:1,2017-12-17T14:00:00Z,25.0870,-80.5190,1.0,19.05,2 
ENP,ioos.station.NOAA.NDBC:BNKF1:1,2017-12-17T15:00:00Z,25.0870,-80.5190,1.0,19.17,2 
ENP,ioos.station.NOAA.NDBC:BNKF1:1,2017-12-17T16:00:00Z,25.0870,-80.5190,1.0,19.47,2 
ENP,ioos.station.NOAA.NDBC:BNKF1:1,2017-12-17T17:00:00Z,25.0870,-80.5190,1.0,19.81,2 
ENP,ioos.station.NOAA.NDBC:BNKF1:1,2017-12-17T18:00:00Z,25.0870,-80.5190,1.0,20.1,2 
ENP,ioos.station.NOAA.NDBC:BNKF1:1,2017-12-17T19:00:00Z,25.0870,-80.5190,1.0,20.15,2 
ENP,ioos.station.NOAA.NDBC:BNKF1:1,2017-12-17T20:00:00Z,25.0870,-80.5190,1.0,20.28,2 